Location: Vancouver
(49.2500°N, 123.1330°W)
Time: 12:16:08
(UTC-07:00)

Vanguard 2 Rocket - Visible Passes

Search period start: 29 May 2016 00:00
Search period end: 08 June 2016 00:00
Orbit: 554 x 3329 km, 32.9° (Epoch: 28 May)

Date Brightness Start Highest point End Pass type
(mag) Time Alt. Az. Time Alt. Az. Time Alt. Az.
29 May 9.2 00:09:36 10° WSW 00:24:46 37° SSW 00:31:50 21° SSE visible
29 May 9.4 02:29:12 10° WSW 02:37:26 18° SW 02:37:37 18° SW visible
29 May 9.4 23:07:46 10° WSW 23:24:42 42° S 23:35:25 13° SE visible
30 May 9.1 01:26:23 10° W 01:38:21 26° SSW 01:41:12 24° SSW visible
30 May 9.6 22:06:15 10° WSW 22:24:14 44° S 22:37:18 10° ESE visible
31 May 9.2 00:24:03 10° W 00:38:51 34° SSW 00:44:47 24° SSE visible
31 May 9.7 02:45:34 10° WSW 02:50:34 13° SW 02:50:34 13° SW visible
31 May 9.5 23:22:01 10° WSW 23:38:52 40° SSW 23:48:21 18° SE visible
01 Jun 9.5 01:41:33 10° W 01:52:06 21° SW 01:54:08 21° SSW visible
01 Jun 9.6 22:20:21 10° WSW 22:38:26 44° S 22:51:46 10° ESE visible
02 Jun 9.3 00:38:45 10° W 00:52:44 29° SSW 00:57:43 24° S visible
02 Jun 9.8 21:19:07 10° WSW 21:37:39 46° S 21:52:32 10° ESE visible
02 Jun 9.5 23:36:29 10° W 23:52:52 36° SSW 00:01:17 21° SSE visible
03 Jun 9.8 01:57:34 10° WSW 02:05:37 16° SW 02:07:04 16° SW visible
03 Jun 9.7 22:34:41 10° WSW 22:52:32 42° SSW 23:04:52 14° SE visible
04 Jun 9.6 00:53:52 10° W 01:06:23 24° SW 01:10:39 21° SSW visible
04 Jun 9.8 21:33:20 10° WSW 21:51:47 46° S 22:06:53 10° ESE visible
04 Jun 9.6 23:51:12 10° W 00:06:40 31° SSW 00:14:14 21° S visible
05 Jun 10.2 02:17:07 10° WSW 02:18:56 10° SW 02:20:01 10° SW visible
05 Jun 9.8 22:49:11 10° W 23:06:28 38° SSW 23:17:50 16° SSE visible
06 Jun 9.9 01:09:45 10° W 01:19:50 18° SW 01:23:36 16° SSW visible
06 Jun 9.9 21:47:43 10° WSW 22:05:50 43° SSW 22:21:01 10° SE visible
07 Jun 9.8 00:06:20 10° W 00:20:17 26° SW 00:27:13 19° S visible
07 Jun 9.9 23:03:58 10° W 23:20:15 33° SSW 23:30:50 17° SSE visible
